Location: *
(41.0833°N, 73.4167°W)
Time: 10:46:11
(UTC+00:00)

BREEZE-M DEB (TANK) - Pass Details

Date: 22 October 2019
Orbit: 398 x 14925 km, 46.0° (Epoch: 13 November)

Event Time Altitude Azimuth Distance (km) Brightness Sun altitude
Exits shadow 08:42:09 42° 186° (S) 1,483 4.7 -29.0°
Maximum altitude 08:43:17 47° 154° (SSE) 1,212 4.5 -28.8°
Drops below altitude 10° 08:46:55 10° 79° (E) 1,883 6.5 -28.1°
Sets 08:48:25 0° 72° (ENE) 2,540 7.5 -27.8°
